GW5308 Weather Reports


time (UTC)temp
C
wind
direction
speed
KPH
gust
KPH
rain 1hr
cm
rain 24hr
cm
rain mn
cm
humidity
%
barometer
mb
20260905022526 23 0 0.0 0.0 0.00 0.33 0.33 100 1014.5
20260905022021 23 0 0.0 0.0 0.00 0.33 0.33 100 1014.5
20260905021547 23 0 0.0 0.0 0.00 0.33 0.33 100 1014.5
20260905021020 23 0 0.0 0.0 0.00 0.33 0.33 100 1014.5
20260905020519 23 0 0.0 0.0 0.00 0.33 0.33 100 1014.5
20260905020041 23 0 0.0 0.0 0.03 0.33 0.33 100 1014.5
20260905015526 23 0 0.0 0.0 0.03 0.33 0.33 100 1014.4
20260905015020 23 0 0.0 0.0 0.05 0.33 0.33 100 1014.5
20260905014536 23 0 0.0 0.0 0.05 0.33 0.33 100 1014.5
20260905014021 23 0 0.0 0.0 0.08 0.33 0.33 100 1014.5
20260905013524 23 0 0.0 0.0 0.10 0.33 0.33 100 1014.5
20260905013035 23 0 0.0 0.0 0.10 0.33 0.33 100 1014.4
20260905012520 23 0 0.0 0.0 0.13 0.33 0.33 100 1014.5
20260905012021 23 0 0.0 0.0 0.15 0.33 0.33 100 1014.4
20260905011541 23 0 0.0 0.0 0.18 0.33 0.33 100 1014.4
20260905011019 23 0 0.0 0.0 0.20 0.33 0.33 100 1014.3
20260905010520 24 0 0.0 0.0 0.20 0.33 0.33 100 1014.2
20260905010044 24 0 0.0 0.0 0.20 0.30 0.30 100 1014.2
20260905005520 24 0 0.0 0.0 0.25 0.30 0.30 100 1014.0
20260905005019 24 0 0.0 0.0 0.25 0.28 0.28 100 1014.1
20260905004538 24 0 0.0 0.0 0.25 0.28 0.28 100 1014.1
20260905004023 24 0 0.0 0.0 0.25 0.25 0.25 100 1014.1
20260905003522 24 0 0.0 0.0 0.23 0.23 0.23 100 1014.1
20260905003039 24 0 0.0 0.0 0.23 0.23 0.23 100 1014.1
20260905002520 24 0 0.0 0.0 0.20 0.20 0.20 100 1014.1
20260905002021 24 0 0.0 0.0 0.18 0.18 0.18 100 1014.3
20260905001540 24 0 0.0 0.0 0.15 0.15 0.15 100 1014.2
20260905001020 24 0 0.0 0.0 0.13 0.13 0.13 100 1014.0
20260905000521 24 0 0.0 0.0 0.13 0.13 0.13 100 1014.0
20260905000038 24 0 0.0 0.0 0.08 0.08 0.08 100 1013.8
20260904235522 24 0 0.0 0.0 0.05 0.05 0.05 100 1013.9
20260904235021 25 0 0.0 0.0 0.03 0.03 0.03 100 1014.1
20260904234543 25 0 0.0 0.0 0.03 0.03 0.03 100 1014.1
20260904234023 25 0 0.0 0.0 0.00 0.00 0.00 100 1014.1
20260904233522 25 0 0.0 0.0 0.00 0.00 0.00 100 1014.1
20260904233036 25 0 0.0 0.0 0.00 0.00 0.00 100 1014.2
20260904232520 25 0 0.0 0.0 0.00 0.00 0.00 100 1014.2
20260904232020 25 0 0.0 0.0 0.00 0.00 0.00 100 1014.2
20260904231542 25 0 0.0 0.0 0.00 0.00 0.00 100 1014.2
20260904231022 25 0 0.0 0.0 0.00 0.00 0.00 100 1014.1
20260904230519 25 0 0.0 0.0 0.00 0.00 0.00 100 1014.2
20260904230040 25 0 0.0 0.0 0.00 0.00 0.00 100 1014.3
20260904225522 25 0 0.0 0.0 0.00 0.00 0.00 100 1014.3
20260904225017 25 0 0.0 0.0 0.00 0.00 0.00 99 1014.4
20260904224542 25 0 0.0 0.0 0.00 0.00 0.00 99 1014.3
20260904224020 25 0 0.0 0.0 0.00 0.00 0.00 99 1014.4
20260904223516 25 0 0.0 0.0 0.00 0.00 0.00 99 1014.4
20260904223039 25 0 0.0 3.2 0.00 0.00 0.00 99 1014.2
20260904222519 25 0 0.0 3.2 0.00 0.00 0.00 98 1014.3
20260904222021 25 0 0.0 3.2 0.00 0.00 0.00 98 1014.4
20260904221538 25 0 0.0 0.0 0.00 0.00 0.00 97 1014.5
20260904221020 25 0 0.0 0.0 0.00 0.00 0.00 97 1013.8
20260904220520 25 0 0.0 0.0 0.00 0.00 0.00 97 1013.2
20260904220105 25 0 0.0 1.6 0.00 0.00 0.00 97 1012.9
20260904215518 26 0 0.0 1.6 0.00 0.00 0.00 96 1013.2
20260904215018 26 0 0.0 1.6 0.00 0.00 0.00 95 1012.8
20260904214540 26 242 0.0 1.6 0.00 0.00 0.00 94 1012.6
20260904214024 27 0 0.0 1.6 0.00 0.00 0.00 92 1012.5
20260904213521 27 0 0.0 1.6 0.00 0.00 0.00 90 1012.5
20260904213040 27 0 0.0 4.8 0.00 0.00 0.00 88 1012.4
20260904212522 28 0 0.0 14.5 0.00 0.00 0.00 85 1012.5
20260904212020 30 0 1.6 14.5 0.00 0.00 0.00 84 1012.9
20260904211547 31 0 0.0 1.6 0.00 0.00 0.00 88 1012.7
20260904211026 31 0 0.0 3.2 0.00 0.00 0.00 86 1012.4
20260904210520 32 0 0.0 3.2 0.00 0.00 0.00 84 1012.2
20260904210046 32 227 0.0 3.2 0.00 0.00 0.00 81 1012.2
20260904205520 33 276 0.0 1.6 0.00 0.00 0.00 79 1012.0
20260904205020 33 0 0.0 1.6 0.00 0.00 0.00 81 1012.1
20260904204540 32 0 0.0 1.6 0.00 0.00 0.00 81 1012.2
20260904204019 32 0 0.0 1.6 0.00 0.00 0.00 80 1012.2
20260904203519 33 0 0.0 1.6 0.00 0.00 0.00 79 1012.4
20260904203048 33 0 0.0 1.6 0.00 0.00 0.00 75 1012.4
20260904202520 33 0 0.0 1.6 0.00 0.00 0.00 79 1012.4
20260904202020 33 0 0.0 1.6 0.00 0.00 0.00 77 1012.4
20260904201537 33 195 0.0 1.6 0.00 0.00 0.00 76 1012.4
20260904201019 33 0 0.0 0.0 0.00 0.00 0.00 80 1012.4
20260904200521 33 0 0.0 0.0 0.00 0.00 0.00 77 1012.4
20260904200044 33 0 0.0 0.0 0.00 0.00 0.00 76 1012.5
20260904195520 33 0 0.0 1.6 0.00 0.00 0.00 75 1012.6
20260904195020 33 0 0.0 1.6 0.00 0.00 0.00 76 1012.7
20260904194545 34 240 0.0 1.6 0.00 0.00 0.00 74 1012.7
20260904194020 34 0 0.0 1.6 0.00 0.00 0.00 73 1012.7
20260904193522 34 0 0.0 3.2 0.00 0.00 0.00 73 1012.7
20260904193039 34 0 0.0 3.2 0.00 0.00 0.00 72 1012.8
20260904192520 34 194 0.0 3.2 0.00 0.00 0.00 71 1012.8
20260904192021 34 244 1.6 3.2 0.00 0.00 0.00 69 1012.9
20260904191545 35 0 0.0 0.0 0.00 0.00 0.00 70 1013.0
20260904191021 35 0 0.0 0.0 0.00 0.00 0.00 72 1013.0
20260904190521 35 0 0.0 0.0 0.00 0.00 0.00 72 1013.1
20260904190047 35 0 0.0 0.0 0.00 0.00 0.00 69 1013.1
20260904185519 35 0 0.0 1.6 0.00 0.00 0.00 70 1013.3
20260904185022 35 0 0.0 3.2 0.00 0.00 0.00 68 1013.4
20260904184549 35 241 0.0 3.2 0.00 0.00 0.00 69 1013.5
20260904184021 35 0 0.0 3.2 0.00 0.00 0.00 74 1013.5
20260904183521 35 245 0.0 3.2 0.00 0.00 0.00 70 1013.6
20260904183045 35 211 0.0 3.2 0.00 0.00 0.00 70 1013.7
20260904182520 35 0 0.0 3.2 0.00 0.00 0.00 71 1013.8
20260904182028 34 0 0.0 3.2 0.00 0.00 0.00 74 1013.8
20260904181540 34 240 0.0 3.2 0.00 0.00 0.00 73 1013.8
20260904181018 34 0 0.0 3.2 0.00 0.00 0.00 74 1013.8
20260904180518 34 190 1.6 3.2 0.00 0.00 0.00 74 1013.9
20260904180043 33 257 0.0 1.6 0.00 0.00 0.00 79 1014.0
20260904175519 33 0 0.0 1.6 0.00 0.00 0.00 83 1014.2
20260904175018 32 0 0.0 1.6 0.00 0.00 0.00 80 1014.2
20260904174543 32 0 0.0 0.0 0.00 0.00 0.00 81 1014.3
20260904174020 32 0 0.0 1.6 0.00 0.00 0.00 80 1014.4
20260904173521 33 0 0.0 1.6 0.00 0.00 0.00 78 1014.4
20260904173042 33 0 0.0 1.6 0.00 0.00 0.00 79 1014.4
20260904172518 33 0 0.0 1.6 0.00 0.00 0.00 78 1014.4
20260904172019 33 236 0.0 1.6 0.00 0.00 0.00 80 1014.4
20260904171543 32 0 0.0 0.0 0.00 0.00 0.00 79 1014.5
20260904171018 32 0 0.0 1.6 0.00 0.00 0.00 78 1014.5
20260904170519 32 0 0.0 1.6 0.00 0.00 0.00 79 1014.6
20260904170044 32 0 0.0 0.0 0.00 0.00 0.00 80 1014.7
20260904165521 33 0 0.0 0.0 0.00 0.00 0.00 78 1014.7
20260904165021 33 0 0.0 6.4 0.00 0.00 0.00 76 1014.9
20260904164538 33 0 0.0 6.4 0.00 0.00 0.00 75 1014.8
20260904164021 33 250 0.0 6.4 0.00 0.00 0.00 73 1014.9
20260904163522 33 217 0.0 6.4 0.00 0.00 0.00 73 1015.0
20260904163037 33 0 0.0 4.8 0.00 0.00 0.00 74 1015.1
20260904162523 32 0 0.0 4.8 0.00 0.00 0.00 77 1015.1
20260904162020 32 0 0.0 4.8 0.00 0.00 0.00 79 1014.9
20260904161539 32 0 0.0 1.6 0.00 0.00 0.00 78 1015.0
20260904161017 32 0 0.0 4.8 0.00 0.00 0.00 78 1015.1
20260904160521 33 0 0.0 4.8 0.00 0.00 0.00 78 1015.2
20260904160038 33 0 0.0 4.8 0.00 0.00 0.00 77 1015.2
20260904155527 33 218 0.0 3.2 0.00 0.13 0.00 79 1015.2
20260904155020 32 0 0.0 4.8 0.00 0.13 0.00 79 1015.2
20260904154544 32 0 0.0 4.8 0.00 0.13 0.00 79 1015.3
20260904154022 32 0 0.0 1.6 0.00 0.13 0.00 80 1015.4
20260904153520 32 0 0.0 1.6 0.00 0.13 0.00 78 1015.4
20260904153050 32 0 0.0 3.2 0.00 0.13 0.00 82 1015.4
20260904152523 31 0 0.0 3.2 0.00 0.13 0.00 83 1015.4
20260904152019 31 228 0.0 4.8 0.00 0.13 0.00 83 1015.4
20260904151539 31 0 0.0 4.8 0.00 0.13 0.00 84 1015.3
20260904151016 32 273 0.0 4.8 0.00 0.13 0.00 83 1015.4
20260904150517 32 258 0.0 3.2 0.00 0.13 0.00 84 1015.3
20260904150037 31 0 0.0 3.2 0.00 0.13 0.00 83 1015.4
20260904145520 31 0 0.0 0.0 0.00 1.40 0.00 84 1015.2
20260904145020 31 0 0.0 4.8 0.00 1.40 0.00 83 1015.1
20260904144542 31 0 0.0 4.8 0.00 1.40 0.00 85 1015.1
20260904144024 31 0 0.0 4.8 0.00 1.40 0.00 85 1015.3
20260904143519 31 248 0.0 3.2 0.00 1.40 0.00 84 1015.3
20260904143040 31 0 0.0 3.2 0.00 1.40 0.00 86 1015.4
20260904142521 30 70 0.0 1.6 0.00 1.40 0.00 86 1015.3
20260904142023 30 0 0.0 1.6 0.00 1.40 0.00 87 1015.1
20260904141540 30 0 0.0 1.6 0.00 1.40 0.00 87 1015.1
20260904141019 30 240 0.0 1.6 0.00 1.40 0.00 87 1014.9
20260904140517 30 0 0.0 1.6 0.00 1.40 0.00 88 1014.6
20260904140051 30 228 0.0 1.6 0.00 1.40 0.00 87 1014.6
20260904135521 30 0 0.0 0.0 0.00 1.40 0.00 88 1014.6
20260904135021 30 0 0.0 0.0 0.00 1.40 0.00 89 1014.7
20260904134540 29 0 0.0 0.0 0.00 1.40 0.00 92 1014.8
20260904134019 29 0 0.0 0.0 0.00 1.40 0.00 92 1014.7
20260904133521 28 0 0.0 0.0 0.00 1.40 0.00 92 1014.8
20260904133039 28 0 0.0 0.0 0.00 1.40 0.00 95 1014.7
20260904132520 28 0 0.0 0.0 0.00 1.40 0.00 97 1014.7
20260904132026 28 0 0.0 0.0 0.00 1.40 0.00 99 1014.7
20260904131540 27 0 0.0 1.6 0.00 1.40 0.00 100 1014.8
20260904131020 26 0 0.0 1.6 0.00 1.40 0.00 100 1014.7
20260904130522 26 0 0.0 1.6 0.00 1.40 0.00 100 1014.8
20260904130042 26 0 0.0 0.0 0.00 1.40 0.00 100 1014.7
20260904125516 26 0 0.0 0.0 0.00 1.40 0.00 100 1014.9
20260904125021 26 0 0.0 1.6 0.00 1.40 0.00 100 1014.9
20260904124535 25 0 0.0 1.6 0.00 1.40 0.00 100 1014.9
20260904124019 25 301 0.0 0.0 0.00 1.40 0.00 100 1015.0
20260904123519 25 0 0.0 0.0 0.00 1.40 0.00 100 1014.8
20260904123040 25 0 0.0 0.0 0.00 1.40 0.00 100 1014.8
20260904122522 25 0 0.0 0.0 0.00 1.40 0.00 100 1014.7
20260904122023 25 0 0.0 0.0 0.00 1.40 0.00 100 1014.7
20260904121541 24 0 0.0 0.0 0.00 1.40 0.00 100 1014.6
20260904121023 24 0 0.0 0.0 0.00 1.40 0.00 100 1014.5
20260904120520 23 0 0.0 0.0 0.00 1.40 0.00 100 1014.6
20260904120044 23 0 0.0 0.0 0.00 1.40 0.00 100 1014.5
20260904115522 23 0 0.0 0.0 0.00 1.40 0.00 100 1014.4
20260904115021 23 0 0.0 0.0 0.00 1.40 0.00 100 1014.4
20260904114542 23 0 0.0 0.0 0.00 1.40 0.00 100 1014.4
20260904114020 23 0 0.0 0.0 0.00 1.40 0.00 100 1014.3
20260904113522 23 0 0.0 0.0 0.00 1.40 0.00 100 1014.3
20260904113038 23 0 0.0 0.0 0.00 1.40 0.00 100 1014.3
20260904112520 23 0 0.0 0.0 0.00 1.40 0.00 100 1014.2
20260904112021 23 0 0.0 0.0 0.00 1.40 0.00 100 1014.2
20260904111540 23 0 0.0 0.0 0.00 1.40 0.00 100 1014.0
20260904111019 23 0 0.0 0.0 0.00 1.40 0.00 100 1014.0
20260904110520 23 0 0.0 0.0 0.00 1.40 0.00 100 1013.9
20260904110043 23 0 0.0 0.0 0.00 1.40 0.00 100 1013.8
20260904105521 23 0 0.0 0.0 0.00 1.40 0.00 100 1013.8
20260904105020 23 0 0.0 0.0 0.00 1.40 0.00 100 1013.6
20260904104536 23 0 0.0 0.0 0.00 1.40 0.00 100 1013.6
20260904104023 23 0 0.0 0.0 0.00 1.40 0.00 100 1013.6
20260904103520 23 0 0.0 0.0 0.00 1.40 0.00 100 1013.6
20260904103036 23 0 0.0 0.0 0.00 1.40 0.00 100 1013.5
20260904102520 23 0 0.0 0.0 0.00 1.40 0.00 100 1013.5
20260904102020 23 0 0.0 0.0 0.00 1.40 0.00 100 1013.5
20260904101536 23 0 0.0 0.0 0.00 1.40 0.00 100 1013.4
20260904101020 23 0 0.0 0.0 0.00 1.40 0.00 100 1013.3
20260904100519 23 0 0.0 0.0 0.00 1.40 0.00 100 1013.4
20260904100042 23 0 0.0 0.0 0.00 1.40 0.00 100 1013.3
20260904095519 23 0 0.0 0.0 0.00 1.40 0.00 100 1013.3
20260904095018 23 0 0.0 0.0 0.00 1.40 0.00 100 1013.3
20260904094544 23 0 0.0 0.0 0.00 1.40 0.00 100 1013.3
20260904094020 23 0 0.0 0.0 0.00 1.40 0.00 100 1013.2
20260904093521 23 0 0.0 0.0 0.00 1.40 0.00 100 1013.2
20260904093045 23 0 0.0 0.0 0.00 1.40 0.00 100 1013.2
20260904092519 23 0 0.0 0.0 0.00 1.40 0.00 100 1013.2
20260904092018 23 0 0.0 0.0 0.00 1.40 0.00 100 1013.1
20260904091538 24 0 0.0 0.0 0.00 1.40 0.00 100 1013.2
20260904091023 24 0 0.0 0.0 0.00 1.40 0.00 100 1013.1
20260904090519 24 0 0.0 0.0 0.00 1.40 0.00 100 1013.1
20260904090038 24 0 0.0 0.0 0.00 1.40 0.00 100 1013.1
20260904085520 23 0 0.0 0.0 0.00 1.40 0.00 100 1013.1
20260904085020 23 0 0.0 0.0 0.00 1.40 0.00 100 1013.1
20260904084538 24 0 0.0 0.0 0.00 1.40 0.00 100 1013.2
20260904084018 24 0 0.0 0.0 0.00 1.40 0.00 100 1013.2
20260904083519 24 0 0.0 0.0 0.00 1.40 0.00 100 1013.2
20260904083039 24 0 0.0 0.0 0.00 1.40 0.00 100 1013.3
20260904082518 24 0 0.0 0.0 0.00 1.40 0.00 100 1013.3
20260904082018 24 0 0.0 0.0 0.00 1.40 0.00 100 1013.2
20260904081538 24 0 0.0 0.0 0.00 1.40 0.00 100 1013.3
20260904081021 24 0 0.0 0.0 0.00 1.40 0.00 100 1013.3
20260904080522 24 0 0.0 0.0 0.00 1.40 0.00 100 1013.1
20260904080035 24 0 0.0 0.0 0.00 1.40 0.00 100 1013.1
20260904075525 24 0 0.0 0.0 0.00 1.40 0.00 100 1013.1
20260904075020 24 0 0.0 0.0 0.00 1.40 0.00 100 1013.0
20260904074538 24 0 0.0 0.0 0.00 1.40 0.00 100 1013.0
20260904074022 24 0 0.0 0.0 0.00 1.40 0.00 100 1012.8
20260904073521 24 0 0.0 0.0 0.00 1.40 0.00 100 1012.9
20260904073040 24 0 0.0 0.0 0.00 1.40 0.00 100 1012.9
20260904072521 24 0 0.0 0.0 0.00 1.40 0.00 100 1013.0
20260904072019 24 0 0.0 0.0 0.00 1.40 0.00 100 1013.0
20260904071539 24 0 0.0 0.0 0.00 1.40 0.00 100 1012.9
20260904071020 24 0 0.0 0.0 0.00 1.40 0.00 100 1013.0
20260904070521 24 0 0.0 0.0 0.00 1.40 0.00 100 1012.9
20260904070045 24 0 0.0 0.0 0.00 1.40 0.00 100 1012.9
20260904065523 24 0 0.0 0.0 0.00 1.40 0.00 100 1013.0
20260904065019 24 0 0.0 0.0 0.00 1.40 0.00 100 1013.0
20260904064542 25 0 0.0 0.0 0.00 1.40 0.00 100 1013.0
20260904064018 25 0 0.0 0.0 0.00 1.40 0.00 100 1013.0
20260904063521 25 0 0.0 0.0 0.00 1.40 0.00 100 1013.1
20260904063043 25 0 0.0 0.0 0.00 1.40 0.00 100 1013.1
20260904062522 25 0 0.0 0.0 0.00 1.40 0.00 100 1013.2
20260904062019 25 0 0.0 0.0 0.00 1.40 0.00 100 1013.3
20260904061544 25 0 0.0 0.0 0.00 1.40 0.00 100 1013.3
20260904061025 25 0 0.0 0.0 0.00 1.40 0.00 100 1013.5
20260904060521 25 0 0.0 0.0 0.00 1.40 0.00 100 1013.5
20260904060100 25 0 0.0 0.0 0.00 1.40 0.00 100 1013.5
20260904055520 25 0 0.0 0.0 0.00 1.40 0.00 100 1013.6
20260904055020 25 0 0.0 0.0 0.00 1.40 0.00 100 1013.7
20260904054542 25 0 0.0 0.0 0.00 1.40 0.00 100 1013.8
20260904054024 25 0 0.0 0.0 0.00 1.40 0.00 100 1013.8
20260904053520 25 0 0.0 0.0 0.00 1.40 0.00 100 1013.8
20260904053041 25 0 0.0 0.0 0.00 1.40 0.00 100 1013.9
20260904052519 25 0 0.0 0.0 0.00 1.40 0.00 100 1013.9
20260904052021 25 0 0.0 0.0 0.00 1.40 0.00 100 1013.9
20260904051541 25 0 0.0 0.0 0.00 1.40 0.00 100 1014.0
20260904051023 25 0 0.0 0.0 0.00 1.40 0.00 100 1014.0
20260904050520 25 0 0.0 0.0 0.00 1.40 0.00 100 1014.0
20260904050047 25 0 0.0 0.0 0.00 1.40 0.00 100 1014.1
20260904045520 25 0 0.0 0.0 0.00 1.40 0.00 100 1014.2
20260904045021 25 0 0.0 0.0 0.00 1.40 0.00 100 1014.1
20260904044606 25 0 0.0 0.0 0.00 1.40 0.00 100 1014.1
20260904044020 25 0 0.0 0.0 0.00 1.40 0.00 100 1014.1
20260904043521 25 0 0.0 0.0 0.00 1.40 0.00 100 1014.1
20260904043037 25 0 0.0 0.0 0.00 1.40 0.00 100 1014.1
20260904042520 25 0 0.0 0.0 0.00 1.40 0.00 100 1014.1
20260904042018 25 0 0.0 0.0 0.00 1.40 0.00 100 1014.0
20260904041541 25 0 0.0 0.0 0.00 1.40 0.00 100 1014.0
20260904041020 25 0 0.0 0.0 0.00 1.40 0.00 100 1013.9
20260904040521 25 0 0.0 0.0 0.00 1.40 0.00 100 1014.0
20260904040043 25 0 0.0 0.0 0.00 1.40 0.00 100 1014.0
20260904035520 25 0 0.0 0.0 0.00 1.40 1.40 100 1013.9
20260904035023 25 0 0.0 0.0 0.00 1.40 1.40 100 1014.0
20260904034544 25 0 0.0 0.0 0.00 1.40 1.40 100 1014.0
20260904034019 25 0 0.0 0.0 0.00 1.40 1.40 100 1014.0
20260904033519 25 0 0.0 0.0 0.00 1.40 1.40 100 1014.1
20260904033041 25 0 0.0 0.0 0.00 1.40 1.40 100 1014.1
20260904032519 25 0 0.0 0.0 0.00 1.40 1.40 100 1013.9
20260904032021 25 0 0.0 0.0 0.00 1.40 1.40 100 1013.9
20260904031536 25 0 0.0 0.0 0.00 1.40 1.40 100 1014.0
20260904031019 25 0 0.0 0.0 0.00 1.40 1.40 100 1014.0
20260904030519 25 0 0.0 0.0 0.00 1.40 1.40 100 1014.0
20260904030038 25 0 0.0 0.0 0.00 1.40 1.40 100 1013.9
20260904025521 25 0 0.0 0.0 0.00 1.40 1.40 100 1013.9
20260904025019 25 0 0.0 0.0 0.00 1.40 1.40 100 1013.9
20260904024541 25 0 0.0 0.0 0.00 1.40 1.40 100 1013.9
20260904024020 26 0 0.0 0.0 0.00 1.40 1.40 100 1013.8
20260904023519 26 0 0.0 0.0 0.00 1.40 1.40 100 1013.9
20260904023040 26 0 0.0 0.0 0.00 1.40 1.40 100 1013.7